Temp
-11 -12 -13 -14 -15 -15 -16 -17 -17 -18 -18 -19 -19 -19 -19 -20 -21 -23 -25 -25 -26 -26 -26 -26 -26 -26 -25 -24 -20 -19 -18 -19 -19 -18 -18 -17 -17 -17 -17 -17 -16 -16 -15 -16 -16 -14 -14
-11 -12 -13 -14 -15 -15 -16 -17 -17 -18 -18 -18 -19 -19 -20 -20 -21 -25 -25 -25 -26 -26 -26 -26 -26 -26 -26 -25 -23 -20 -19 -19 -18 -18 -18 -18 -17 -18 -17 -17 -17 -16 -16 -16 -16 -15 -15
-11 -12 -13 -14 -14 -15 -16 -17 -18 -18 -18 -19 -19 -19 -20 -21 -22 -25 -26 -26 -26 -26 -27 -26 -26 -26 -26 -25 -24 -21 -20 -19 -18 -18 -18 -18 -18 -18 -18 -17 -17 -17 -16 -16 -15 -14 -15
-11 -12 -13 -14 -14 -15 -16 -17 -18 -19 -19 -19 -20 -19 -20 -21 -23 -25 -26 -26 -27 -27 -27 -27 -26 -26 -26 -25 -25 -22 -21 -20 -19 -18 -19 -19 -19 -19 -18 -18 -17 -17 -16 -16 -15 -15 -16
-11 -12 -13 -13 -14 -15 -16 -17 -18 -19 -19 -19 -20 -20 -21 -22 -23 -26 -26 -27 -27 -28 -27 -27 -27 -26 -26 -25 -25 -23 -22 -20 -19 -19 -19 -19 -19 -18 -18 -18 -17 -18 -17 -15 -16 -16 -16
-11 -12 -13 -13 -14 -15 -15 -17 -18 -19 -19 -19 -20 -20 -21 -22 -23 -25 -26 -27 -27 -27 -27 -27 -26 -26 -25 -25 -24 -22 -20 -20 -20 -19 -19 -19 -19 -18 -18 -18 -18 -17 -16 -15 -16 -15 -16
-10 -12 -13 -13 -14 -15 -15 -17 -18 -18 -19 -19 -20 -20 -21 -23 -24 -25 -26 -27 -27 -26 -26 -26 -26 -25 -25 -24 -22 -22 -21 -21 -20 -19 -19 -18 -18 -17 -17 -17 -18 -18 -18 -17 -17 -16 -15
-10 -11 -12 -13 -14 -15 -15 -16 -17 -18 -19 -19 -20 -20 -21 -22 -23 -23 -25 -26 -26 -26 -26 -26 -25 -25 -24 -23 -22 -21 -21 -20 -19 -18 -19 -19 -18 -18 -18 -18 -19 -18 -17 -18 -17 -15 -16
-10 -11 -12 -13 -14 -15 -15 -16 -17 -18 -18 -19 -19 -20 -21 -22 -22 -22 -23 -25 -26 -26 -25 -25 -24 -24 -23 -22 -21 -21 -20 -19 -19 -19 -19 -18 -18 -18 -18 -18 -18 -18 -17 -18 -16 -15 -16
-11 -11 -12 -13 -14 -15 -15 -16 -17 -18 -18 -18 -19 -20 -20 -21 -22 -22 -23 -23 -23 -24 -24 -24 -24 -22 -21 -22 -21 -20 -20 -19 -19 -19 -19 -18 -18 -18 -18 -18 -18 -18 -17 -18 -17 -16 -16
-10 -11 -12 -13 -14 -15 -15 -15 -16 -17 -18 -18 -19 -19 -20 -21 -21 -21 -22 -23 -23 -23 -23 -23 -22 -21 -20 -20 -20 -19 -18 -18 -18 -18 -18 -18 -18 -18 -18 -18 -18 -18 -18 -18 -17 -17 -16
-10 -10 -12 -13 -14 -15 -15 -15 -16 -17 -18 -18 -19 -19 -20 -20 -21 -21 -21 -22 -22 -21 -21 -21 -21 -21 -20 -20 -19 -20 -19 -18 -18 -18 -18 -18 -19 -18 -18 -18 -18 -18 -18 -18 -18 -18 -17
-10 -10 -11 -13 -14 -15 -16 -15 -16 -17 -18 -18 -18 -19 -19 -20 -20 -21 -20 -21 -21 -21 -21 -21 -20 -21 -20 -19 -19 -19 -19 -19 -18 -18 -19 -18 -18 -18 -18 -18 -18 -18 -18 -18 -18 -18 -16
-10 -10 -11 -12 -14 -15 -16 -16 -16 -17 -18 -18 -18 -19 -19 -19 -19 -20 -20 -20 -20 -20 -20 -20 -20 -20 -19 -19 -19 -19 -19 -19 -19 -19 -19 -19 -18 -18 -18 -18 -18 -18 -19 -18 -18 -18 -16
-10 -10 -11 -12 -13 -14 -15 -16 -16 -16 -17 -18 -18 -18 -18 -18 -18 -19 -19 -20 -18 -19 -19 -19 -20 -20 -19 -19 -20 -19 -19 -19 -19 -19 -19 -18 -18 -18 -18 -18 -18 -18 -18 -18 -18 -18 -17
-11 -11 -11 -12 -13 -14 -15 -16 -16 -16 -17 -18 -18 -18 -18 -18 -18 -18 -19 -20 -18 -18 -18 -18 -18 -19 -19 -19 -19 -19 -19 -19 -19 -19 -19 -18 -18 -18 -18 -18 -18 -18 -19 -19 -19 -18 -17
-11 -10 -11 -12 -13 -14 -15 -17 -17 -16 -17 -18 -18 -18 -18 -18 -18 -18 -18 -18 -19 -18 -18 -19 -19 -18 -18 -18 -19 -19 -19 -19 -18 -18 -18 -18 -18 -18 -18 -18 -18 -18 -18 -18 -18 -18 -18
-10 -11 -11 -12 -13 -14 -15 -16 -17 -17 -17 -18 -19 -18 -18 -19 -18 -18 -19 -18 -18 -19 -19 -19 -18 -19 -18 -18 -18 -19 -19 -19 -18 -18 -18 -18 -18 -18 -18 -18 -18 -18 -18 -18 -18 -18 -17
-11 -11 -12 -13 -13 -14 -15 -16 -17 -17 -17 -18 -18 -18 -19 -19 -19 -19 -19 -19 -19 -19 -19 -18 -19 -19 -18 -18 -18 -18 -19 -19 -19 -19 -19 -19 -18 -18 -18 -18 -18 -18 -18 -18 -18 -18 -17
-12 -11 -12 -13 -13 -14 -15 -16 -17 -18 -17 -18 -18 -19 -18 -19 -19 -19 -19 -19 -19 -19 -19 -19 -19 -18 -18 -18 -18 -18 -19 -19 -19 -19 -19 -19 -19 -18 -18 -18 -18 -18 -18 -18 -18 -17 -17
-12 -12 -12 -13 -13 -14 -15 -16 -17 -18 -17 -17 -18 -19 -19 -19 -19 -19 -19 -19 -19 -19 -19 -19 -19 -19 -19 -18 -18 -18 -18 -18 -19 -19 -19 -19 -19 -18 -18 -18 -18 -18 -18 -18 -17 -17 -17
-13 -12 -12 -13 -14 -14 -14 -15 -17 -18 -17 -17 -19 -18 -19 -19 -19 -19 -19 -19 -19 -19 -19 -19 -19 -19 -19 -18 -18 -18 -18 -18 -18 -19 -19 -19 -19 -19 -19 -18 -18 -18 -18 -18 -18 -18 -17
-13 -13 -13 -13 -14 -14 -15 -15 -17 -18 -18 -18 -19 -19 -19 -19 -19 -19 -19 -19 -19 -19 -19 -19 -19 -19 -19 -19 -19 -19 -19 -18 -18 -19 -19 -19 -19 -19 -19 -19 -19 -18 -18 -18 -18 -18 -18
-14 -13 -14 -14 -14 -15 -15 -16 -17 -19 -18 -18 -19 -19 -19 -19 -19 -19 -19 -19 -19 -19 -19 -19 -19 -19 -19 -19 -19 -19 -19 -19 -18 -19 -19 -19 -19 -19 -19 -19 -19 -18 -18 -18 -18 -18 -17
-14 -14 -15 -15 -15 -15 -15 -17 -18 -19 -18 -19 -19 -19 -19 -19 -19 -19 -19 -19 -19 -19 -19 -19 -19 -19 -19 -19 -19 -19 -19 -19 -19 -19 -19 -19 -19 -19 -19 -19 -18 -18 -18 -18 -18 -18 -17
-15 -15 -16 -16 -15 -15 -16 -18 -19 -19 -19 -19 -20 -20 -20 -19 -19 -19 -19 -19 -19 -19 -19 -19 -19 -19 -19 -19 -19 -19 -19 -19 -19 -19 -19 -19 -19 -19 -19 -18 -18 -18 -18 -18 -17 -17 -17
-17 -16 -16 -16 -16 -16 -17 -18 -19 -20 -20 -20 -20 -20 -20 -20 -20 -20 -19 -19 -19 -19 -19 -19 -19 -19 -19 -19 -19 -19 -19 -19 -19 -19 -19 -19 -19 -19 -18 -18 -18 -18 -18 -18 -18 -17 -17
-19 -18 -17 -17 -17 -18 -18 -18 -20 -21 -21 -21 -21 -20 -20 -20 -20 -20 -20 -20 -19 -19 -19 -19 -19 -19 -19 -19 -19 -19 -19 -19 -19 -19 -19 -19 -19 -19 -18 -18 -18 -18 -18 -18 -18 -18 -17
-19 -19 -18 -17 -18 -18 -19 -19 -20 -22 -22 -21 -21 -20 -20 -20 -20 -20 -20 -20 -20 -19 -19 -19 -19 -19 -19 -19 -19 -19 -19 -20 -19 -19 -19 -19 -19 -19 -19 -18 -18 -18 -18 -18 -18 -18 -18
Height
5763 5750 5737 5725 5713 5699 5687 5677 5667 5655 5645 5633 5620 5606 5588 5570 5553 5541 5535 5533 5532 5528 5525 5522 5522 5527 5535 5544 5569 5583 5603 5615 5631 5642 5654 5664 5674 5682 5693 5705 5708 5716 5726 5731 5735 5746 5756
5759 5746 5733 5720 5707 5694 5683 5672 5662 5649 5639 5626 5613 5597 5579 5561 5542 5533 5529 5527 5525 5524 5520 5518 5517 5520 5527 5539 5553 5569 5589 5607 5625 5637 5648 5659 5670 5679 5687 5693 5700 5715 5717 5724 5726 5742 5752
5755 5743 5730 5715 5702 5690 5680 5669 5658 5646 5635 5622 5607 5592 5573 5553 5534 5526 5523 5522 5521 5519 5517 5515 5514 5516 5523 5535 5542 5561 5581 5602 5618 5630 5642 5654 5663 5671 5680 5686 5696 5703 5706 5717 5724 5739 5746
5752 5740 5726 5712 5699 5688 5677 5666 5654 5643 5632 5619 5605 5588 5567 5548 5529 5522 5520 5519 5518 5515 5514 5513 5512 5516 5522 5531 5541 5558 5576 5596 5612 5626 5637 5647 5656 5665 5674 5680 5689 5695 5701 5711 5721 5730 5737
5751 5737 5723 5709 5697 5686 5674 5662 5652 5641 5629 5618 5604 5587 5568 5549 5528 5521 5519 5517 5516 5513 5513 5513 5514 5517 5523 5532 5543 5559 5577 5593 5610 5625 5633 5643 5653 5663 5670 5677 5684 5688 5697 5710 5718 5725 5731
5747 5735 5721 5707 5695 5683 5671 5660 5650 5640 5628 5619 5605 5589 5571 5551 5531 5520 5518 5516 5516 5514 5513 5515 5516 5521 5526 5535 5543 5561 5577 5592 5609 5625 5627 5642 5650 5659 5666 5671 5680 5692 5700 5708 5714 5721 5726
5745 5732 5718 5705 5692 5681 5669 5660 5649 5639 5629 5620 5607 5592 5575 5558 5538 5523 5517 5516 5517 5517 5517 5518 5520 5523 5532 5541 5550 5566 5582 5593 5606 5619 5630 5639 5650 5661 5670 5677 5680 5684 5691 5700 5706 5711 5719
5742 5730 5717 5703 5691 5680 5669 5658 5649 5639 5630 5623 5611 5597 5581 5566 5550 5535 5524 5521 5519 5521 5521 5522 5526 5530 5538 5544 5555 5567 5578 5598 5610 5621 5630 5642 5652 5659 5663 5668 5672 5680 5688 5696 5698 5709 5717
5740 5729 5716 5702 5689 5679 5670 5658 5648 5641 5631 5624 5615 5603 5590 5577 5566 5554 5542 5532 5529 5528 5529 5531 5534 5538 5550 5562 5571 5578 5586 5604 5615 5620 5632 5643 5650 5654 5660 5665 5671 5678 5685 5692 5697 5707 5712
5738 5726 5714 5701 5690 5680 5670 5660 5649 5642 5634 5627 5620 5610 5598 5588 5580 5570 5564 5556 5549 5548 5544 5546 5546 5551 5558 5570 5581 5589 5592 5602 5615 5625 5633 5642 5649 5654 5659 5664 5669 5674 5681 5685 5691 5703 5705
5736 5725 5713 5702 5690 5678 5669 5662 5652 5643 5637 5632 5624 5617 5606 5595 5588 5582 5576 5571 5566 5563 5561 5562 5563 5567 5572 5574 5587 5596 5604 5611 5618 5626 5636 5643 5648 5653 5658 5663 5666 5670 5677 5684 5691 5695 5699
5735 5723 5712 5700 5689 5678 5668 5661 5653 5644 5639 5634 5629 5623 5615 5604 5597 5592 5587 5583 5578 5576 5572 5575 5576 5580 5585 5590 5595 5601 5609 5616 5623 5629 5635 5642 5647 5651 5656 5660 5662 5668 5675 5681 5685 5688 5694
5733 5722 5710 5699 5687 5677 5668 5661 5654 5647 5640 5635 5632 5627 5622 5614 5607 5602 5600 5596 5595 5587 5586 5587 5590 5591 5597 5602 5608 5611 5615 5619 5624 5629 5634 5640 5645 5650 5655 5659 5660 5664 5671 5676 5680 5684 5691
5731 5720 5708 5697 5687 5678 5669 5662 5655 5648 5641 5636 5633 5631 5628 5621 5615 5612 5611 5610 5604 5598 5598 5598 5598 5600 5604 5606 5609 5611 5615 5621 5624 5630 5637 5639 5643 5649 5653 5657 5660 5664 5669 5673 5677 5682 5688
5729 5718 5706 5695 5686 5678 5669 5661 5655 5648 5642 5637 5634 5632 5631 5627 5622 5617 5616 5615 5614 5609 5608 5608 5609 5610 5611 5613 5616 5617 5620 5624 5627 5631 5637 5638 5641 5646 5650 5654 5657 5660 5664 5672 5676 5680 5684
5725 5715 5705 5695 5684 5676 5667 5662 5654 5648 5643 5637 5635 5632 5631 5629 5627 5623 5620 5618 5620 5618 5618 5617 5616 5617 5617 5619 5621 5622 5624 5626 5628 5632 5637 5637 5640 5645 5649 5652 5655 5658 5663 5667 5671 5675 5680
5722 5712 5703 5693 5683 5675 5665 5659 5653 5646 5642 5637 5634 5632 5631 5629 5628 5626 5623 5621 5620 5621 5622 5622 5622 5622 5622 5622 5623 5624 5627 5630 5632 5634 5637 5639 5641 5645 5647 5650 5653 5657 5660 5664 5669 5673 5676
5717 5708 5698 5690 5681 5671 5662 5656 5651 5645 5638 5636 5633 5631 5630 5628 5627 5625 5624 5622 5621 5621 5622 5622 5622 5623 5624 5624 5624 5626 5628 5629 5632 5634 5637 5639 5642 5645 5648 5650 5653 5656 5660 5664 5666 5670 5673
5713 5704 5695 5686 5676 5668 5660 5651 5647 5644 5637 5632 5629 5628 5627 5627 5625 5624 5623 5622 5622 5622 5622 5622 5623 5624 5624 5625 5628 5628 5629 5631 5632 5634 5636 5639 5641 5644 5646 5650 5651 5654 5657 5661 5664 5667 5670
5709 5700 5691 5681 5671 5663 5655 5647 5641 5637 5633 5628 5625 5624 5624 5625 5623 5621 5620 5621 5621 5621 5622 5622 5622 5623 5624 5625 5626 5627 5629 5631 5632 5633 5634 5637 5639 5642 5645 5648 5650 5653 5655 5657 5660 5663 5667
5704 5695 5686 5678 5670 5660 5651 5641 5636 5631 5627 5623 5620 5619 5619 5620 5620 5619 5619 5618 5619 5620 5620 5621 5622 5623 5623 5623 5623 5625 5626 5628 5630 5631 5633 5635 5637 5639 5641 5644 5646 5649 5651 5654 5657 5660 5660
5697 5689 5682 5674 5665 5656 5647 5636 5627 5623 5619 5616 5613 5613 5613 5614 5615 5616 5615 5615 5616 5617 5618 5619 5620 5621 5621 5622 5623 5623 5624 5626 5627 5629 5631 5632 5634 5636 5638 5640 5641 5644 5647 5650 5653 5655 5658
5692 5684 5677 5668 5659 5650 5640 5631 5624 5618 5615 5609 5607 5607 5607 5607 5609 5610 5612 5612 5613 5614 5615 5615 5617 5618 5618 5620 5620 5621 5622 5623 5624 5626 5627 5629 5631 5633 5635 5636 5638 5641 5643 5645 5647 5649 5650
5686 5678 5671 5662 5653 5643 5633 5625 5617 5611 5609 5605 5602 5600 5602 5602 5601 5604 5607 5607 5608 5609 5611 5612 5613 5614 5615 5616 5617 5618 5619 5620 5621 5623 5624 5626 5628 5629 5631 5632 5634 5638 5638 5640 5643 5644 5648
5678 5672 5664 5654 5644 5635 5625 5618 5612 5606 5603 5599 5596 5593 5593 5593 5594 5597 5600 5601 5602 5604 5606 5608 5609 5611 5611 5613 5613 5614 5616 5617 5618 5619 5621 5623 5624 5625 5627 5629 5632 5634 5636 5638 5640 5642 5644
5671 5665 5657 5648 5637 5628 5618 5611 5605 5599 5596 5593 5590 5585 5584 5584 5587 5588 5590 5593 5595 5597 5601 5603 5605 5606 5608 5609 5610 5611 5612 5613 5615 5617 5618 5619 5620 5623 5624 5626 5627 5631 5632 5634 5636 5638 5640
5663 5658 5650 5642 5630 5621 5612 5605 5598 5595 5591 5587 5584 5578 5578 5576 5576 5578 5582 5585 5588 5591 5594 5597 5599 5601 5603 5605 5606 5608 5609 5610 5611 5613 5614 5615 5616 5619 5619 5622 5625 5627 5628 5630 5633 5640 5637
5653 5649 5644 5635 5625 5616 5606 5598 5591 5588 5584 5581 5576 5571 5567 5569 5567 5568 5572 5576 5580 5584 5587 5591 5594 5595 5598 5598 5601 5603 5604 5606 5607 5608 5609 5611 5612 5614 5616 5618 5622 5623 5625 5628 5630 5631 5633
5645 5641 5636 5627 5619 5609 5599 5591 5586 5582 5578 5572 5569 5562 5558 5557 5559 5560 5563 5568 5572 5576 5581 5583 5586 5589 5590 5592 5595 5596 5598 5600 5602 5604 5606 5607 5609 5611 5613 5615 5616 5618 5621 5622 5624 5626 5628
Wind_Speed
55 60 65 70 74 68 58 55 54 54 54 55 60 61 67 73 59 32 29 28 17 24 19 17 19 30 36 50 67 69 67 63 57 55 52 49 47 51 55 52 56 48 49 49 49 48 45
57 62 67 72 72 63 56 54 54 52 55 58 60 64 70 73 57 22 26 23 14 21 14 13 11 23 29 40 50 64 65 57 59 55 54 47 45 44 52 53 55 52 50 52 54 49 43
57 63 69 71 70 59 55 53 51 49 55 57 61 66 73 73 50 19 20 21 15 16 13 12 11 19 26 31 46 56 61 56 55 57 52 49 45 44 50 53 52 56 56 54 56 51 49
58 63 69 72 67 57 55 53 48 46 53 55 61 67 75 75 44 18 17 15 13 12 13 8 5 12 22 29 30 44 52 58 46 54 51 47 44 43 45 51 52 54 59 52 54 49 45
59 64 70 73 63 55 54 51 47 44 50 54 58 66 70 66 52 16 17 13 13 11 6 4 3 14 26 29 29 38 42 56 47 43 50 47 43 41 42 47 52 54 55 51 49 50 44
58 65 71 73 62 53 53 51 47 43 47 53 54 62 64 62 59 25 16 14 13 11 5 4 8 14 26 26 35 43 40 48 53 39 42 42 42 41 39 48 47 49 49 51 45 47 48
58 64 70 71 65 53 52 50 47 41 45 50 50 58 58 57 55 33 15 11 8 9 7 7 12 18 27 33 45 39 40 43 46 47 41 39 37 34 29 35 42 46 48 45 43 47 45
57 63 68 71 64 55 53 50 47 39 42 47 46 54 54 52 43 37 26 17 14 13 8 12 18 26 40 37 29 35 41 39 33 42 41 33 31 30 27 36 46 46 45 44 45 44 44
56 61 66 70 67 60 52 51 45 38 40 42 43 47 45 43 37 44 47 35 25 22 23 30 40 46 44 41 35 42 57 42 47 41 35 32 31 29 27 36 42 49 45 45 45 37 35
54 60 65 70 69 67 49 51 45 37 37 38 38 40 39 34 34 42 44 50 45 37 31 39 45 41 31 39 37 39 34 29 29 31 31 32 26 28 26 30 40 46 46 44 43 34 36
52 57 63 69 70 66 49 49 46 36 35 35 31 33 36 32 23 33 39 29 27 24 28 34 26 29 27 13 37 32 32 27 25 24 27 29 25 25 27 23 30 43 43 43 39 39 39
50 55 61 66 70 67 48 44 45 33 32 31 25 27 32 31 22 26 30 32 34 41 34 32 25 25 33 43 32 30 34 30 31 30 26 23 25 24 30 24 29 36 43 41 39 39 37
48 53 59 66 69 66 53 42 46 34 28 27 21 22 22 26 28 30 27 26 31 34 32 25 29 23 31 27 20 20 21 23 27 30 28 22 19 23 26 27 28 30 40 41 41 39 36
46 51 58 64 71 69 55 43 44 35 25 23 22 16 16 17 18 20 25 21 14 24 32 29 15 21 33 23 25 19 16 21 25 24 24 21 20 25 26 29 33 30 33 39 41 38 35
44 50 56 62 67 68 65 47 39 39 24 20 19 15 10 13 13 13 15 15 10 10 15 18 21 16 19 8 14 18 20 14 21 22 19 20 28 25 26 23 26 29 30 35 38 38 36
42 48 53 59 65 66 64 57 36 38 25 19 16 17 7 5 7 10 16 17 10 8 7 4 7 8 6 7 8 12 11 15 19 22 21 16 26 29 22 26 24 26 27 30 32 34 35
40 47 51 58 64 66 63 56 34 36 29 18 14 12 12 3 1 5 10 11 11 4 8 10 7 3 2 4 5 6 8 9 15 17 19 18 17 23 24 23 24 21 23 25 28 29 31
39 44 49 56 61 64 63 58 42 33 34 20 15 12 10 7 4 4 7 14 14 9 6 2 2 3 2 3 6 7 4 5 10 16 18 19 18 28 23 24 22 19 19 19 18 22 21
37 43 49 56 60 64 65 57 52 34 33 25 16 13 11 10 6 7 10 13 21 16 11 10 6 4 2 3 6 8 6 7 11 15 17 19 19 23 27 25 22 18 18 22 23 22 20
35 41 49 55 58 61 62 59 53 34 25 30 19 14 13 13 11 6 9 13 15 17 16 15 13 9 8 7 8 10 11 10 9 14 17 19 19 20 21 20 21 20 21 23 22 25 21
34 41 45 51 59 61 61 61 60 46 26 31 22 17 16 15 16 12 8 14 16 15 15 16 16 14 13 12 11 10 12 13 12 10 12 22 20 20 20 21 23 20 23 22 21 21 23
36 41 45 49 55 58 59 61 59 45 25 29 28 21 19 19 19 19 16 13 15 18 18 18 18 17 16 15 14 13 13 14 15 15 15 15 18 20 22 22 24 27 25 21 23 23 23
40 44 46 47 53 57 57 59 59 42 29 34 30 22 24 22 21 23 20 17 15 15 16 15 17 17 17 15 16 16 14 14 14 15 15 15 17 17 17 19 22 22 20 20 20 21 23
41 42 45 48 52 57 57 56 56 36 30 37 32 26 20 26 26 24 23 24 21 18 16 14 12 12 12 13 15 16 16 16 16 16 14 13 15 17 17 20 19 16 19 19 19 21 20
38 41 45 46 51 55 55 55 53 40 30 34 29 26 22 25 29 26 27 27 28 25 21 18 15 13 11 10 11 13 14 15 15 16 17 17 17 16 18 19 17 17 16 17 17 17 19
42 43 48 48 51 52 53 54 50 38 31 29 27 23 19 21 27 30 31 30 30 30 27 24 21 19 17 15 12 10 11 14 15 16 17 18 19 18 17 17 19 14 18 18 19 18 19
46 46 49 49 52 51 47 50 41 33 29 29 29 23 23 22 27 33 31 33 32 31 29 28 27 25 25 24 21 17 14 12 14 14 19 20 20 18 18 18 17 15 18 18 19 17 18
43 48 49 50 52 53 49 48 36 29 28 31 33 29 26 26 26 28 36 32 35 32 32 29 30 29 27 27 26 25 24 20 17 14 14 17 19 17 18 19 18 18 18 19 18 17 19
42 45 43 49 47 46 47 44 32 27 29 33 36 32 26 22 25 25 31 36 30 36 31 28 27 25 27 27 24 24 22 22 26 22 16 17 20 20 19 18 18 19 20 21 20 20 19
Wind_Direction
344 340 340 340 344 345 341 341 337 333 335 334 337 341 340 344 340 315 289 293 305 315 302 280 265 233 218 220 221 220 215 218 215 218 219 217 219 219 218 223 226 215 217 218 221 222 212
346 341 341 343 345 345 341 341 340 334 336 338 342 345 345 345 341 310 295 297 323 327 304 298 264 224 214 213 213 216 211 213 214 214 216 217 216 218 216 216 222 219 218 216 222 222 218
346 342 342 343 346 345 341 342 341 335 338 341 347 348 347 348 346 308 310 301 311 325 304 298 263 219 203 190 207 208 206 200 210 212 214 214 215 215 216 217 217 221 217 219 225 225 226
346 344 342 345 349 345 342 343 341 338 340 344 351 352 349 351 353 322 324 306 323 314 292 319 242 203 190 190 188 200 197 197 199 208 210 212 213 213 216 215 214 220 224 215 221 223 223
346 344 343 345 352 347 342 343 343 340 340 344 355 355 353 357 6 333 334 339 355 347 326 9 183 176 181 181 185 184 179 195 192 199 209 209 211 212 217 216 215 219 224 216 216 222 216
346 345 344 346 353 350 343 345 344 341 341 349 359 358 359 358 4 8 355 5 2 16 59 72 136 159 175 162 163 164 155 181 193 185 199 202 209 212 213 218 218 221 224 221 219 218 222
347 345 343 346 351 352 344 345 344 344 343 354 2 360 5 5 9 18 15 3 13 41 95 111 145 152 152 145 139 149 173 175 184 198 203 203 208 214 222 223 215 217 219 226 230 223 214
347 344 343 346 352 353 347 345 344 344 344 354 8 1 8 12 31 37 37 52 70 80 92 123 131 136 144 151 156 156 168 169 174 200 202 203 206 208 217 208 213 215 216 222 231 229 224
346 343 343 344 349 355 350 343 345 345 347 358 11 6 12 26 58 62 66 60 64 92 108 121 126 124 119 133 148 145 148 158 186 191 200 201 205 212 217 214 213 214 217 218 231 229 230
343 341 343 343 349 353 349 343 345 345 349 1 11 20 19 43 65 62 59 68 73 85 111 122 132 111 74 124 128 149 171 157 162 171 182 195 201 214 221 215 218 214 213 217 225 228 229
344 342 342 343 346 351 353 346 345 344 349 2 14 29 26 40 66 38 35 50 61 78 102 113 69 69 98 84 139 154 168 179 184 184 188 194 202 196 212 223 220 218 214 218 222 226 229
343 341 340 340 347 351 354 349 344 343 346 1 11 26 31 39 47 30 35 87 94 103 103 77 90 113 120 130 135 139 166 176 184 191 196 194 208 194 195 210 222 219 215 216 220 230 232
341 341 337 340 343 349 356 350 344 344 343 356 8 23 42 46 52 51 77 99 98 67 64 69 121 111 122 118 137 148 162 174 177 179 182 180 187 194 203 212 226 221 219 215 222 228 231
342 339 337 337 341 345 355 351 342 345 338 349 3 12 31 48 51 60 92 104 65 52 65 77 130 133 131 76 80 76 156 165 179 182 186 204 184 199 212 217 228 231 225 223 223 227 234
338 338 336 336 339 342 346 354 346 343 336 340 357 1 16 47 68 83 115 137 87 97 52 67 70 155 144 94 75 101 113 138 180 177 186 212 197 198 223 230 222 224 222 224 225 230 232
334 337 335 335 335 339 344 350 350 340 337 330 345 352 356 20 78 128 131 138 107 105 146 106 73 73 68 88 85 95 106 137 168 192 199 198 210 209 217 218 225 221 216 217 224 232 236
333 339 334 331 333 337 341 347 345 340 335 320 325 338 340 327 18 153 183 205 201 176 145 149 158 200 202 150 128 125 111 149 166 178 193 189 201 194 200 208 213 221 218 221 229 236 242
341 336 332 329 331 333 336 341 352 338 331 320 307 311 315 324 275 201 191 206 213 209 207 191 32 104 121 196 193 171 135 163 174 185 192 204 190 189 181 186 191 199 210 212 217 231 236
336 333 328 326 327 329 332 338 340 342 324 316 297 292 292 291 293 248 223 207 204 212 235 245 264 288 285 219 202 207 224 193 192 194 197 199 205 207 212 217 222 221 219 222 226 229 231
324 331 325 325 325 326 329 333 336 340 320 317 291 270 273 268 269 268 239 217 213 219 231 242 250 261 266 261 238 225 236 240 229 212 212 212 216 218 222 224 228 231 233 233 231 232 238
318 324 325 323 324 327 327 331 333 337 326 308 305 268 256 256 251 250 243 229 221 221 225 231 242 252 255 256 251 252 247 240 236 237 225 224 224 227 229 230 230 230 230 231 233 229 232
313 320 321 321 322 323 325 328 336 335 326 303 307 276 254 247 246 242 239 232 233 233 239 240 240 242 246 247 248 250 249 244 236 240 243 237 226 230 231 230 231 232 236 238 233 235 236
309 311 316 320 320 323 325 326 331 332 315 299 305 305 256 247 246 243 235 234 229 231 236 238 242 246 250 256 255 253 251 248 239 242 240 242 233 235 237 239 238 237 239 236 236 234 233
305 313 316 319 320 322 325 325 324 326 314 304 307 305 287 250 247 245 234 233 232 230 233 233 235 243 250 257 255 254 256 254 243 241 246 234 232 239 238 237 238 233 233 230 230 229 229
305 310 318 322 322 322 322 324 327 323 320 314 317 307 297 271 244 244 240 235 233 235 238 236 239 244 248 252 257 257 259 255 246 241 241 245 245 248 242 242 243 227 229 229 228 228 228
305 310 321 323 319 320 323 326 332 323 314 314 317 319 295 262 249 238 239 238 236 238 238 240 245 249 253 258 265 271 266 259 254 249 248 249 247 252 248 239 239 223 230 233 230 229 233
316 314 321 326 319 320 323 324 330 319 310 312 310 308 304 280 249 238 236 234 237 237 239 242 247 251 253 257 260 261 263 268 262 260 253 248 248 256 250 242 239 234 235 235 232 230 243
320 322 324 326 318 320 323 332 332 311 307 311 312 309 297 280 265 247 232 235 233 236 238 243 247 250 253 257 259 258 260 257 263 261 255 249 248 254 253 248 244 244 239 241 240 242 246
322 328 334 328 325 325 333 334 324 311 306 317 318 314 303 273 265 256 240 233 234 233 237 240 245 249 251 257 260 263 261 258 255 256 257 256 250 249 252 252 251 248 246 243 244 246 250